Wind_Speed
7 11 11 10 6 2 2 1 4 2 5 5 9 9 9 11 14 15 14 14 14 14 18 20 20 18 18 18 18 16 13 9 6 9 20 19 23 30 28 27 31 28 26 25
4 11 8 2 5 3 4 2 5 1 6 2 5 7 6 11 12 13 13 13 14 14 13 17 18 19 19 17 16 16 15 12 10 7 8 23 19 23 31 33 31 32 32 31
9 4 5 2 8 2 4 7 6 3 5 1 4 4 3 2 6 11 12 12 13 14 15 18 21 20 19 19 21 17 15 14 10 9 5 16 18 16 20 25 28 30 35 34
5 4 4 4 4 7 3 6 5 4 4 2 1 0 6 1 1 11 13 13 13 14 14 17 20 22 20 20 18 18 17 13 11 9 4 4 16 15 22 24 27 28 30 36
2 5 6 5 4 5 4 8 3 1 2 2 4 4 5 0 1 11 13 13 13 13 14 16 18 19 19 19 18 18 17 16 13 11 8 6 8 17 19 27 29 26 28 27
3 1 3 5 3 2 10 3 1 1 1 3 1 3 5 2 2 8 11 11 12 13 13 17 18 18 19 20 19 18 17 17 16 14 11 9 8 8 18 22 25 27 30 30
4 2 2 3 3 0 11 3 1 2 1 1 1 4 4 4 3 6 9 10 10 11 12 15 19 21 21 21 20 19 18 18 17 16 15 13 12 11 12 18 24 23 26 29
4 0 6 6 4 4 6 5 3 4 3 3 1 3 3 4 2 4 4 6 8 11 11 13 18 19 21 21 21 20 19 19 18 16 15 14 13 13 14 13 16 22 26 27
3 2 3 2 2 4 4 4 2 1 2 3 1 2 4 5 3 4 5 7 10 11 11 13 16 17 19 20 20 20 19 18 17 16 16 14 13 13 15 16 14 19 25 23
3 4 1 3 1 1 3 1 1 1 4 3 1 4 3 2 3 4 5 8 10 11 12 13 15 17 18 18 18 18 17 17 16 15 14 13 14 13 15 16 18 13 20 20
2 1 1 2 4 4 2 1 1 1 2 2 4 1 2 3 5 6 5 7 9 11 11 11 14 15 16 18 19 18 18 17 17 16 15 13 11 11 13 13 13 17 15 16
2 0 3 2 1 3 3 4 3 2 1 1 2 4 3 6 6 6 6 7 8 9 9 12 13 15 16 18 19 19 18 17 16 15 14 14 12 10 7 1 4 7 14 15
4 2 3 3 1 1 4 4 3 1 1 6 2 2 3 7 7 7 7 7 8 7 8 9 11 15 16 18 19 19 18 17 16 14 14 15 15 14 14 13 11 11 16 14
5 1 3 3 1 2 4 5 7 6 4 3 8 7 7 7 7 4 5 4 5 5 4 5 8 11 14 15 17 18 18 17 16 14 15 16 17 17 18 16 18 16 15 17
2 2 3 6 9 6 9 10 8 12 11 6 1 5 10 9 8 4 4 3 4 5 3 3 4 8 9 11 14 14 14 17 15 15 18 16 16 18 18 20 20 20 20 20
2 1 1 4 1 2 7 12 12 13 16 16 15 20 10 6 3 5 7 5 5 5 4 3 3 6 9 10 10 11 13 13 11 16 16 16 18 22 21 22 24 23 22 22
4 3 1 4 2 6 6 7 14 8 8 13 8 9 2 2 5 7 8 7 7 5 3 3 4 5 7 8 9 11 12 11 11 15 20 21 20 23 23 22 25 26 23 21
5 3 0 4 5 2 1 2 6 14 8 16 8 10 7 4 3 6 9 8 8 6 4 4 2 2 3 6 9 9 9 10 13 15 15 15 15 18 21 24 28 20 19 17
0 3 2 2 2 8 1 5 7 7 7 19 21 17 9 5 2 10 12 12 10 8 7 6 3 1 2 3 4 5 7 9 10 10 10 11 15 15 18 22 20 15 14 14
3 2 1 2 2 4 1 3 4 2 5 5 17 15 12 8 5 5 7 13 14 9 9 8 6 3 1 2 2 2 5 6 9 8 10 10 14 15 19 17 17 16 15 14
4 3 5 5 4 9 7 7 5 1 2 3 8 10 14 9 6 3 6 8 13 13 12 10 8 5 4 3 2 3 3 6 8 9 11 11 12 14 16 16 16 15 16 17
9 9 5 4 4 8 10 7 7 1 2 2 4 11 15 12 7 5 8 9 13 14 13 12 10 8 7 5 4 3 4 5 8 8 10 12 12 14 14 15 14 14 15 15
5 6 5 10 7 0 15 2 8 2 2 4 3 8 11 12 11 10 10 12 15 15 15 16 15 11 10 8 8 6 6 6 7 7 10 12 13 13 13 14 14 14 13 13
6 4 3 1 5 15 13 16 12 6 12 4 4 5 11 11 13 12 9 12 15 19 21 20 18 17 16 12 10 8 7 7 6 6 5 8 10 12 12 12 12 12 11 10
2 9 5 8 10 8 14 16 18 15 14 10 8 8 11 13 12 13 11 14 19 23 25 24 24 23 20 16 13 11 9 9 7 7 6 5 6 8 10 11 10 10 10 9
7 8 7 9 10 5 5 7 12 15 16 18 15 12 12 15 13 15 13 21 24 25 27 27 27 25 22 19 17 15 12 11 9 7 6 6 6 6 7 8 8 8 7 8
Wind_Direction
29 62 40 19 14 46 8 19 23 49 15 57 69 68 52 45 46 37 32 28 25 20 9 13 3 359 4 13 12 6 360 7 310 269 222 222 204 222 222 230 224 222 229 236
86 51 360 274 11 65 43 1 27 226 13 126 125 99 81 51 49 39 26 23 17 10 11 9 1 359 0 1 4 0 355 356 346 322 269 235 228 225 223 228 233 228 225 229
77 14 329 125 39 20 44 14 337 303 334 71 201 182 199 122 46 40 35 26 20 11 1 358 360 358 354 353 349 349 347 342 343 334 277 231 227 220 211 231 234 235 234 232
66 349 11 39 52 353 294 4 302 283 228 199 269 191 200 268 67 32 23 18 13 6 1 358 354 352 351 345 340 337 337 339 335 338 310 244 217 211 223 233 239 237 235 231
56 5 359 20 0 334 328 327 305 297 191 205 182 260 126 140 215 8 11 10 9 4 357 352 352 349 347 345 341 336 333 333 334 335 324 286 254 230 225 226 224 230 234 230
41 359 329 332 316 308 326 248 191 131 234 231 110 281 144 161 6 349 0 9 5 3 354 349 350 348 347 346 344 340 337 333 332 330 324 312 290 252 228 224 222 223 222 231
346 28 337 336 339 330 4 322 245 207 228 2 43 270 23 132 60 358 347 359 2 0 358 352 353 349 346 346 345 343 340 334 332 326 321 315 303 282 258 227 223 218 225 231
6 170 4 355 56 326 2 0 29 309 325 330 317 260 86 137 98 3 345 346 348 352 354 357 354 347 343 343 344 342 341 336 332 327 321 314 305 292 276 258 240 230 230 234
351 272 333 349 9 331 358 36 353 277 135 263 308 232 164 182 248 325 336 335 347 346 347 352 353 351 345 343 343 342 339 335 334 330 325 318 310 299 285 268 255 240 243 239
133 300 66 327 287 87 343 352 288 30 337 319 319 283 339 193 292 328 333 340 342 342 346 349 350 349 348 347 345 346 343 338 335 334 331 323 314 302 288 278 260 257 243 244
104 206 90 259 37 349 340 335 3 342 314 325 316 81 172 245 304 314 324 329 334 340 345 344 346 347 349 352 350 350 351 348 346 344 343 341 333 318 305 271 267 245 249 243
120 235 289 92 259 322 289 293 295 287 196 250 293 282 172 242 283 294 289 309 327 333 344 346 346 345 352 354 352 353 355 355 354 354 356 2 5 9 20 98 238 222 217 220
165 168 303 158 166 104 266 230 251 80 214 223 238 249 236 263 277 271 274 293 314 322 342 349 351 353 350 351 352 353 354 354 360 10 18 22 31 46 55 66 90 123 131 130
126 146 246 264 268 97 233 233 229 219 245 197 241 297 275 257 246 262 251 255 287 304 317 337 351 351 350 351 354 355 355 2 7 20 39 38 40 56 67 74 83 90 103 116
213 219 198 267 267 256 254 249 222 229 234 229 70 239 268 264 259 244 228 231 288 303 317 336 343 336 346 348 353 358 0 10 13 33 41 39 53 63 73 82 83 81 83 91
192 173 162 275 286 213 268 247 235 242 246 257 265 280 274 297 202 215 212 203 252 271 283 302 347 352 351 356 350 357 7 8 25 45 40 48 59 74 73 77 81 81 79 80
179 157 48 268 329 306 275 232 200 217 220 215 206 229 257 281 240 229 218 226 243 255 265 294 341 340 345 358 354 6 14 21 33 48 53 51 60 72 75 81 80 72 74 79
151 112 104 290 306 291 42 184 182 222 247 217 234 240 214 228 251 251 222 221 232 228 221 239 253 308 335 5 13 19 28 39 43 46 47 52 53 63 77 80 77 73 73 80
291 153 128 295 270 300 203 192 189 185 281 213 223 235 218 195 271 254 220 216 219 210 192 201 204 224 348 7 13 26 35 48 60 49 56 59 75 73 72 78 83 86 82 77
108 82 171 145 242 247 189 153 187 161 278 199 210 228 206 157 229 246 183 204 206 194 182 186 190 199 255 284 47 52 51 57 63 61 70 70 84 85 86 90 91 89 87 87
171 187 208 178 257 280 228 147 143 154 291 163 199 202 178 195 214 112 147 169 183 182 188 191 195 193 215 218 152 116 96 80 74 73 79 84 83 82 86 88 91 91 87 85
176 165 185 140 214 275 155 110 195 245 160 171 197 195 198 205 175 171 179 170 177 184 189 197 198 206 212 206 192 180 156 132 99 88 88 83 89 90 91 95 94 94 93 87
232 202 191 202 207 355 199 206 218 290 240 195 199 208 208 196 199 189 191 186 193 194 199 204 206 210 216 208 200 200 183 161 148 124 101 98 96 101 104 100 98 92 87 82
231 179 232 273 224 229 225 243 243 231 232 229 232 195 192 208 203 198 193 194 197 201 207 210 208 214 219 212 199 202 188 175 161 158 138 112 105 99 98 100 95 89 83 81
175 149 180 257 279 268 249 236 241 234 226 236 228 221 210 211 216 207 199 195 201 205 210 212 215 220 219 212 205 198 195 187 178 168 157 143 128 118 107 100 95 90 78 81
195 186 186 236 204 200 225 212 217 216 222 225 219 220 223 207 217 204 213 204 201 205 210 212 218 224 221 215 209 207 202 197 191 183 178 175 163 149 144 127 113 101 100 83
Height
859 854 864 868 865 863 861 857 854 858 860 857 859 860 861 860 856 855 854 853 852 850 850 846 846 847 843 838 834 830 827 826 829 827 826 826 828 834 837 840 842 846 850 853
858 867 874 874 869 864 860 857 856 860 861 855 860 860 863 862 864 863 862 859 858 857 855 855 853 847 843 841 839 836 830 827 826 826 823 826 829 828 831 833 837 841 843 847
863 877 876 870 869 864 865 865 863 864 861 862 858 852 854 861 861 863 864 864 862 861 858 854 852 849 845 840 836 836 834 830 827 825 824 824 825 826 828 831 831 835 838 841
875 879 876 870 871 872 863 872 870 866 858 847 860 839 847 854 856 859 863 864 864 863 861 858 854 850 847 844 840 835 833 832 829 825 822 822 823 824 822 823 829 829 833 835
879 878 877 870 877 877 867 873 868 864 858 855 854 849 839 855 852 857 863 867 866 866 863 859 856 853 849 845 841 836 832 829 828 825 824 821 819 820 820 822 823 821 823 828
884 887 884 881 878 878 877 871 867 865 861 855 858 854 838 848 861 861 864 868 868 867 865 860 857 854 849 845 841 837 832 829 825 823 821 820 817 816 817 817 817 818 819 821
886 881 884 886 874 874 874 870 851 851 851 844 863 858 842 861 868 871 870 869 869 868 864 860 857 853 849 845 841 836 832 828 825 822 819 816 814 813 811 811 812 813 814 816
892 870 887 887 888 889 882 876 867 854 852 851 862 847 847 865 871 871 872 871 869 867 864 862 859 855 850 845 841 836 831 827 824 820 817 815 813 810 807 806 807 807 809 812
894 888 894 894 890 892 884 885 886 883 897 882 851 848 863 868 867 868 869 868 866 866 864 862 860 857 852 846 841 836 831 827 823 819 815 812 810 808 806 804 804 805 807 809
909 893 902 894 893 889 886 887 880 877 870 852 847 852 839 859 860 864 865 865 864 864 862 861 859 856 852 847 842 837 832 828 823 819 815 812 808 806 803 801 801 802 804 806
904 908 894 898 894 894 885 885 883 881 881 871 868 836 861 860 861 863 864 865 864 863 862 861 858 856 852 847 842 838 833 828 823 818 814 811 808 805 801 799 799 800 801 803
903 906 893 897 900 901 897 889 887 877 885 886 883 850 862 863 864 866 864 864 864 864 863 861 858 855 851 846 842 838 833 829 823 818 814 810 806 803 800 798 797 797 799 800
899 902 881 887 898 897 897 888 886 891 892 887 872 839 865 864 866 865 864 864 865 865 864 862 859 855 851 847 843 839 834 830 824 819 815 811 807 803 800 799 798 797 797 799
900 916 896 865 874 890 903 898 887 889 881 874 867 856 858 863 866 863 864 866 867 866 866 863 859 857 854 850 845 841 836 831 827 822 817 814 810 806 803 802 800 801 801 800
900 900 921 909 899 900 894 890 891 887 875 877 869 879 857 857 859 860 861 862 863 863 863 863 861 858 855 851 847 843 839 835 830 825 821 818 814 811 808 805 804 805 807 807
903 899 918 912 911 903 896 887 892 890 881 872 869 862 845 847 850 860 857 859 860 860 860 860 859 858 855 851 848 845 842 839 835 829 826 823 819 814 812 811 811 811 812 814
898 902 905 878 915 913 878 872 873 866 864 862 863 845 844 849 851 852 851 854 856 855 856 858 857 856 854 851 848 846 843 839 836 831 828 826 823 819 818 816 814 816 819 821
899 906 910 891 899 844 849 864 861 861 857 853 848 842 842 843 846 847 847 847 849 851 854 855 856 856 854 851 848 846 844 841 836 834 832 831 829 826 824 820 814 823 821 828
898 895 909 897 903 857 843 861 859 858 828 834 836 832 837 843 845 838 841 843 845 847 850 853 855 855 854 852 851 848 847 844 841 840 838 835 833 833 829 824 826 832 832 831
903 899 895 919 878 842 824 845 852 850 827 820 826 827 833 842 836 822 834 838 842 845 848 851 852 853 854 853 852 850 849 848 845 843 841 838 836 836 833 834 833 834 834 836
902 905 899 907 888 861 835 845 850 834 813 818 822 823 832 831 823 829 833 837 839 843 846 849 850 852 854 853 853 852 850 850 847 845 844 842 840 838 836 836 837 838 839 838
884 892 897 908 900 852 840 849 832 809 817 817 822 822 824 823 828 831 833 836 838 840 843 846 849 850 852 852 852 852 852 850 849 848 846 844 842 841 840 840 841 842 842 841
871 854 860 852 836 824 829 816 816 818 814 816 817 818 820 823 824 827 830 833 836 838 840 843 845 848 850 850 851 851 850 850 849 849 847 845 845 844 844 843 843 843 843 843
868 863 854 857 812 821 823 817 817 815 815 814 814 814 817 817 818 821 826 829 832 834 836 838 841 843 845 847 848 849 849 849 849 849 848 847 846 845 844 844 845 845 845 845
848 855 849 844 823 819 814 812 802 803 808 811 811 812 811 813 815 815 818 821 824 827 830 833 835 837 840 842 843 844 845 846 846 846 847 847 847 846 846 845 846 846 846 845
842 830 825 794 795 787 784 784 786 796 798 795 802 805 806 808 807 810 811 811 815 818 822 826 829 832 834 836 838 840 841 843 844 845 845 845 845 845 845 846 846 847 847 847